Regional Weather Roundup
Issued by NWS Kansas City/Pleasant Hill, MO

Home | Current Version | Previous Version | Graphics & Text | Print | Product List | Glossary Off
Versions: 1 2 3 4 5 6 7 8 9 10 11 12 13 14 15 16 17 18 19 20 21 22 23 24 25 26 27

000
ASUS43 KEAX 200210
RWREAX

WEATHER ROUNDUP FOR EASTERN KANSAS AND NORTHWEST MISSOURI
NATIONAL WEATHER SERVICE KANSAS CITY/PLEASANT HILL MO
800 PM CST SUN FEB 19 2017

KSZ040-057-103>105-MOZ028-029-037-043-200300-
...KANSAS CITY METROPOLITAN AREA...

CITY           SKY/WX    TMP DP  RH WIND       PRES   REMARKS
K.C. INTL      CLOUDY    63  54  72 S8        29.88S
K.C. DOWNTOWN  PTCLDY    70  53  54 S8        29.88S
LEES SUMMIT    PTCLDY    66  53  63 S7        29.90S
OLATHE - IXD   CLOUDY    61  51  70 SE5       29.90S
OLATHE - OJC   PTCLDY    63  53  70 S5        29.89F
LAWRENCE         N/A    N/A N/A N/A MISG      29.88S

$$

MOZ001>008-011>017-020>025-030>033-038>040-044>046-053-054-200300-
...NORTHERN AND CENTRAL MISSOURI...

CITY           SKY/WX    TMP DP  RH WIND       PRES   REMARKS
ST. JOSEPH     PTCLDY    62  54  74 S7        29.87S
WARRENSBURG    PTCLDY    63  50  63 SE8       29.91S
WHITEMAN AFB   CLEAR     67  55  64 S8        29.92R
CLINTON        PTCLDY    66  55  68 SE12      29.93S
SEDALIA        CLEAR     67  51  56 SE9       29.95S
WARSAW         NOT AVBL
CHILLICOTHE      N/A     63  46  54 SE6       29.92S
KIRKSVILLE     PTCLDY    58  45  62 SE7       29.96R

$$

MOZ041-047>049-056>058-063>065-088>090-097-200300-
...EASTERN AND SOUTHERN MISSOURI...

CITY           SKY/WX    TMP DP  RH WIND       PRES   REMARKS
ST. LOUIS INTL PTCLDY    63  52  67 SE13      30.03R
SPIRIT OF STL  PTCLDY    64  52  64 SE6       30.01R
COLUMBIA       CLOUDY    65  47  52 SE9       29.98R
JEFFERSON CITY PTCLDY    64  46  52 SE9       29.98R
ROLLA          CLEAR     61  51  70 MISG      30.01R
OSAGE BEACH    CLEAR     65  55  70 SE10G17   30.00R
SPRINGFIELD    CLEAR     65  56  72 SE15      29.97R
BRANSON        CLEAR     63  55  77 SE10      30.01S
JOPLIN         PTCLDY    63  54  72 S8        29.92F
WEST PLAINS    CLEAR     61  55  81 SE6       30.06R

$$

IAZ060-094-KSZ022-034>040-054-083-096-NEZ052-066-093-200300-
...KANSAS...SOUTHEAST NEBRASKA AND IOWA...

CITY           SKY/WX    TMP DP  RH WIND       PRES   REMARKS
TOPEKA         PTCLDY    56  51  84 S3        29.87R
MANHATTAN      CLOUDY    59  53  80 S6        29.86S
EMPORIA        PTCLDY    59  54  83 SE7       29.87S
CHANUTE        CLEAR     63  55  75 SE7       29.89F
WICHITA        CLOUDY    63  57  81 SE12      29.84S
OMAHA          CLOUDY    60  50  69 S10       29.80S
LINCOLN        PTCLDY    57  51  80 S15       29.82R
FALLS CITY     CLOUDY    60  54  80 S12       29.85S
LAMONI         PTCLDY    62  48  60 SE8       29.89S
DES MOINES     CLOUDY    62  47  57 SE12      29.89S

$$





USA.gov is the U.S. government's official web portal to all federal, state and local government web resources and services.